KINDAKUN POINT, BC current weather conditions

sailwx.info

Wind from 150 at 23 knots gusting 27

Air temperature 11.0° C
Dewpoint 7.0° C

Last reported at 2014-Oct-21 13:00 UTC.
Time now 2014-Oct-21 15:13 UTC

Location: N 53°19' W 132°46'.
View on Google Maps.

See reports from other nearby stations

  
Tides and Currents Weather Stations Pressure Air Temp Water Temp Dewpoint Dewpoint Depression Visibility Wind Speed Wind Dir Waves Ship Positions
date/time (UTC)wind fromknots sea level pressurealtimeterstation pressurevisibilityair tempwater tempwave heightnotes
2014-Oct-21 14:00 170 27 gusting 39 11.0
2014-Oct-21 13:00 150 23 gusting 27 11.0
2014-Oct-21 12:00 160 20 gusting 25 11.0
2014-Oct-21 11:00 150 27 gusting 35 9.0
2014-Oct-21 10:00 150 20 gusting 30 12.0
2014-Oct-21 09:00 140 19 gusting 27 12.0
2014-Oct-21 08:00 150 20 gusting 31 11.0
2014-Oct-21 07:00 160 19 gusting 29 12.0
2014-Oct-21 06:00 160 13 gusting 19 11.0
2014-Oct-21 05:00 140 13 gusting 18 12.0
2014-Oct-21 04:00 150 14 gusting 19 12.0
2014-Oct-21 03:00 150 13 gusting 18 11.0
2014-Oct-21 02:00 210 13 10.0
2014-Oct-21 01:00 190 15 12.0
2014-Oct-21 00:00 200 12 12.0
2014-Oct-20 23:00 200 10 12.0
2014-Oct-20 22:00 220 7 13.0
2014-Oct-20 21:00 240 7 13.0
2014-Oct-20 20:00 250 8 12.0
2014-Oct-20 19:00 270 7 12.0
2014-Oct-20 18:00 260 8 12.0
2014-Oct-20 17:00 250 6 12.0
2014-Oct-20 16:00 260 13 11.0
2014-Oct-20 15:00 230 12 12.0
2014-Oct-20 14:00 240 13 12.0
2014-Oct-20 13:00 230 15 12.0
2014-Oct-20 12:00 240 15 12.0
2014-Oct-20 11:00 200 12 12.0
2014-Oct-20 10:00 210 15 13.0
2014-Oct-20 09:00 170 14 12.0
2014-Oct-20 08:00 180 15 11.0
2014-Oct-20 07:00 210 13 11.0
2014-Oct-20 06:00 150 13 12.0
2014-Oct-20 05:00 160 14 12.0
2014-Oct-20 03:00 170 7 12.0
2014-Oct-20 02:00 150 13 11.0
2014-Oct-20 01:00 180 20 13.0
2014-Oct-20 00:00 180 23 gusting 27 13.0
2014-Oct-19 23:00 180 22 gusting 27 13.0
2014-Oct-19 22:00 180 24 gusting 29 13.0
2014-Oct-19 21:00 190 23 gusting 29 12.0
2014-Oct-19 20:00 200 22 12.0
2014-Oct-19 19:00 200 26 gusting 34 12.0
2014-Oct-19 18:00 210 23 gusting 29 12.0
2014-Oct-19 17:00 170 26 gusting 33 12.0
2014-Oct-19 16:00 230 9 12.0
2014-Oct-19 15:00 210 4 12.0